Notices

What's New in latest Release from April 7th, 2021:

- Updated Glossary, including Speed of Maximum Gust, and Total Hourly Precipitation

- Updated national and regional climate services offices contacts and prices information

- Addition of station inventory lists for 1981-2010, 1971-2000, and 1961-1990 Normals.

If you haven't already, please take our survey and provide feedback about our website: https://eccc.sondage-survey.ca/f/LanguageSelection.aspx?s=442ca660-fcf1-47c0-95a9-59707d6fd709

Hourly Data Report for October 12, 2019

QUALICUM BEACH AIRPORT
BRITISH COLUMBIA
Current Station Operator: ECCC - MSC

49°20'14.000" N
124°23'38.000" W
58.20 m
1026562
71766
VOQ

Download Data

Hourly Data (October 2019)
Hourly Data Report for October 12, 2019
TIME
LST
Temp Definition
°C
Dew Point Definition
°C
Rel Hum Definition
%
Precip. Amount Definition
mm

Wind Dir Definition
10's deg

Wind Spd Definition
km/h
Visibility Definition
km
Stn Press Definition
kPa
Hmdx Definition


Wind Chill Definition


Weather Definition


00:00 6.9 5.5 91 0.0 24 2   101.10     LegendNANA
01:00 7.0 5.6 91 0.0 0 1   101.10     LegendNANA
02:00 7.2 6.1 93 0.0 29 2   101.11     LegendNANA
03:00 7.4 6.7 95 0.3 26 6   101.10     LegendNANA
04:00 7.4 6.5 94 0.4 25 5   101.08     LegendNANA
05:00 7.5 6.7 95 0.4 26 5   101.09     LegendNANA
06:00 7.4 6.8 96 0.3 26 4   101.06     LegendNANA
07:00 7.4 6.6 95 0.2 27 5   101.03     LegendNANA
08:00 7.6 6.7 94 0.0 0 1   101.02     LegendNANA
09:00 8.7 7.2 90 0.0 27 3   101.05     LegendNANA
10:00 9.8 7.2 84 0.0 30 7   101.06     LegendNANA
11:00 9.9 6.4 79 0.0 30 8   101.04     LegendNANA
12:00 11.0 6.9 75 0.0 32 8   100.99     LegendNANA
13:00 11.3 6.9 75 0.0 31 11   100.96     LegendNANA
14:00 11.5 5.8 68 0.0 32 9   100.91     LegendNANA
15:00 10.8 6.2 73 0.0 30 8   100.89     LegendNANA
16:00 11.1 6.6 73 0.0 31 9   100.86     LegendNANA
17:00 10.5 7.9 84 0.0 29 5   100.84     LegendNANA
18:00 10.2 7.5 84 0.0 29 4   100.82     LegendNANA
19:00 9.8 7.4 85 0.0 26 2   100.82     LegendNANA
20:00 9.6 7.7 88 0.0 26 5   100.80     LegendNANA
21:00 10.5 7.3 80 0.0 27 6   100.78     LegendNANA
22:00 9.9 7.5 85 0.0 28 4   100.75     LegendNANA
23:00 9.5 7.5 87 0.0 27 4   100.74     LegendNANA

Notes on Data Quality.

Legend

  • E = Estimated
  • M = Missing
  • NA = Not Available*
  • [empty] = Indicates an unobserved value
Date modified: